Home   Weather   Coeur d'Alene   Past weeks

Flag for USA Past Weather in Coeur d'Alene, Idaho, USA — Yesterday and Last 2 Weeks

Now
37 °F

Light rain. More clouds than sun.


Feels Like: 34 °F
Forecast: 26 / 35 °F
Wind: 3 mph from Southwest

Location: Coeur d'Alene Weather Reporting System

Current Time: Jan 22, 2017 at 4:23:14 pm

Latest Report: Jan 22, 2017 at 3:56 pm


Visibility: 10 mi

Pressure: 29.69 "Hg (27.38 "Hg at 655m altitude)

Humidity: 82%

Dew Point: 32 °F

Location of Coeur d'AleneLocation

Past Weather in Coeur d'Alene — Graph

°F

Coeur d'Alene Temperature Yesterday

Maximum temperature yesterday: 37 °F (at 11:56 am)
Minimum temperature yesterday: 30 °F (at 2:56 am)
Average temperature yesterday: 34 °F

High & Low Weather Summary for the Past Weeks

 TemperatureHumidityPressure
High41 °F (Jan 20, 1:56 pm)100% (Jan 8, 10:23 pm)30.73 "Hg (Jan 8, 10:23 pm)
Low-3 °F (Jan 12, 9:56 pm)57% (Jan 11, 11:56 am)29.34 "Hg (Jan 20, 8:56 pm)
Average23 °F87%30.00 "Hg
* Reported Jan 7 3:56 pm — Jan 22 3:24 pm, Coeur d'Alene, Weather by CustomWeather, © 2017

Note: Actual official high and low records may vary slightly from our data, if they occured in-between our weather recording intervals... More about our weather records

Advertising

Coeur d'Alene Weather History for the Previous 24 Hours

Scroll right to see more
 ConditionsComfort  
Time TempWeatherWind HumidityBarometerVisibility
3:24 pm
Sun, Jan 22
37 °FLight rain. Mostly cloudy.No wind81%29.59 "Hg10 mi
2:56 pm38 °FLight rain. Mostly cloudy.6 mph79%29.69 "Hg10 mi
1:56 pm38 °FSunny.14 mph79%29.66 "Hg10 mi
12:56 pm38 °FSunny.13 mph79%29.67 "Hg10 mi
11:56 am37 °FSunny.18 mph86%29.70 "Hg10 mi
10:56 am37 °FSunny.14 mph82%29.75 "Hg10 mi
9:56 am35 °FPassing clouds.15 mph88%29.77 "Hg10 mi
9:41 am34 °FScattered clouds.16 mph93%29.67 "Hg10 mi
8:56 am32 °FLow clouds.18 mph96%29.77 "Hg7 mi
8:15 am32 °FIce fog.16 mph93%29.68 "Hg3 mi
7:56 am32 °FIce fog.16 mph96%29.79 "Hg1 mi
7:14 am32 °FLow clouds.14 mph100%29.69 "Hg10 mi
6:56 am32 °FIce fog.15 mph100%29.80 "Hg2 mi
6:26 am32 °FIce fog.15 mph100%29.70 "Hg1 mi
6:14 am32 °FFog.14 mph93%29.70 "Hg1 mi
5:47 am32 °FFog.10 mph93%29.72 "Hg1 mi
5:32 am32 °FIce fog.13 mph93%29.72 "Hg1 mi
5:23 am32 °FLight snow. Ice fog.12 mph93%29.73 "Hg4 mi
4:56 am32 °FLow clouds.6 mph96%29.85 "Hg10 mi
4:29 am32 °FMostly cloudy.5 mph93%29.75 "Hg10 mi
3:56 am32 °FPassing clouds.3 mph96%29.85 "Hg9 mi
3:34 am32 °FMostly cloudy.No wind93%29.76 "Hg9 mi
2:56 am32 °FMostly cloudy.No wind96%29.86 "Hg10 mi
2:21 am32 °FLight snow. Mostly cloudy.7 mph93%29.75 "Hg9 mi
1:56 am33 °FLight snow. Fog.No wind92%29.86 "Hg4 mi
12:56 am33 °FMostly cloudy.3 mph92%29.85 "Hg10 mi
11:56 pm
Sat, Jan 21
33 °FLight rain. Mostly cloudy.5 mph92%29.83 "Hg10 mi
11:18 pm34 °FLight rain. Mostly cloudy.7 mph93%29.73 "Hg10 mi
10:56 pm33 °FMostly cloudy.9 mph96%29.82 "Hg10 mi
9:56 pm34 °FOvercast.7 mph92%29.81 "Hg10 mi
8:56 pm34 °FOvercast.8 mph92%29.80 "Hg10 mi
7:56 pm34 °FMostly cloudy.14 mph92%29.77 "Hg10 mi
6:56 pm34 °FLight rain. Mostly cloudy.14 mph92%29.75 "Hg10 mi
5:56 pm34 °FOvercast.13 mph92%29.74 "Hg10 mi
4:56 pm34 °FOvercast.13 mph92%29.72 "Hg10 mi
Weather by CustomWeather, © 2017

See weather overviewHow to use our weather pages